Imperial, NE

6:48 PM MST on February 23, 2017 (GMT -0700)
Imperial Municipal

Weather History for KIML - July, 2013

Change the Weather History Date:

Monday, July 1, 2013

  Actual Average Record
Temperature  
Mean Temperature 68 °F 74 °F  
Max Temperature 81 °F 89 °F 107 °F (1990)
Min Temperature 54 °F 60 °F 37 °F (1918)
Degree Days  
Heating Degree Days 0 0  
Month to date heating degree days 0 0  
Since 1 June heating degree days 24 34  
Cooling Degree Days 3 10  
Month to date cooling degree days 3 10  
Year to date cooling degree days 302 238  
Since 1 June cooling degree days 234 194  
Growing Degree Days 18 (Base 50)    
Moisture  
Dew Point 49 °F    
Average Humidity 58    
Maximum Humidity 86    
Minimum Humidity 30    
Precipitation  
Precipitation 0.00 in 0.11 in 1.03 in (1985)
Sea Level Pressure  
Sea Level Pressure 30.20 in    
Wind  
Wind Speed 5 mph (ESE)    
Max Wind Speed 13 mph    
Max Gust Speed 18 mph    
Visibility 10 miles    
Events      
T = Trace of Precipitation, MM = Missing Value Source: NWS Daily Summary

Daily Weather History Graph

Daily Weather History Graph

Search for Another Location

Airport or City:

Trip Planner

Search our weather history database for the weather conditions in past years. The results will help you decide how hot, cold, wet, or windy it might be!

Date:

Astronomy

Jul. 01, 2013 Rise Set
Actual Time 5:19 AM MDT 8:20 PM MDT
Civil Twilight 4:46 AM MDT 8:53 PM MDT
Nautical Twilight 4:04 AM MDT 9:35 PM MDT
Astronomical Twilight 3:15 AM MDT 10:24 PM MDT
Moon 12:51 AM MDT (7/1) 2:37 PM MDT (7/1)
Length of Visible Light 16h 07m
Length of Day
15h 00m
Waning Crescent, 35% of the Moon is Illuminated
Jul 1
Waning Crescent
Jul 8
New
Jul 15
First Quarter
Jul 22
Full
Jul 29
Last Quarter

Hourly Weather History & Observations

Time (MDT) Temp. Dew Point Humidity Pressure Visibility Wind Dir Wind Speed Gust Speed Precip Events Conditions
12:53 AM 60.1 °F 52.0 °F 75% 30.16 in 10.0 mi ESE 9.2 mph - N/A   Mostly Cloudy
1:53 AM 61.0 °F 52.0 °F 72% 30.17 in 10.0 mi SE 9.2 mph - N/A   Mostly Cloudy
2:53 AM 61.0 °F 51.1 °F 70% 30.19 in 10.0 mi South 5.8 mph - N/A   Overcast
3:53 AM 59.0 °F 51.1 °F 75% 30.19 in 10.0 mi SSE 4.6 mph - N/A   Overcast
4:53 AM 57.0 °F 51.1 °F 81% 30.20 in 10.0 mi Calm Calm - N/A   Mostly Cloudy
5:53 AM 55.0 °F 52.0 °F 89% 30.21 in 7.0 mi East 4.6 mph - N/A   Clear
6:53 AM 59.0 °F 52.0 °F 78% 30.22 in 8.0 mi Calm Calm - N/A   Overcast
7:53 AM 64.0 °F 51.1 °F 63% 30.24 in 9.0 mi Calm Calm - N/A   Clear
8:53 AM 68.0 °F 50.0 °F 52% 30.24 in 10.0 mi ESE 4.6 mph - N/A   Clear
9:53 AM 71.1 °F 51.1 °F 49% 30.23 in 10.0 mi ESE 5.8 mph - N/A   Clear
10:53 AM 73.0 °F 51.1 °F 46% 30.22 in 10.0 mi Calm Calm - N/A   Clear
11:53 AM 75.9 °F 51.1 °F 42% 30.20 in 10.0 mi Variable 3.5 mph - N/A   Clear
12:53 PM 77.0 °F 50.0 °F 39% 30.20 in 10.0 mi Variable 3.5 mph - N/A   Scattered Clouds
1:53 PM 77.0 °F 48.9 °F 37% 30.19 in 10.0 mi NNE 6.9 mph - N/A   Mostly Cloudy
2:53 PM 79.0 °F 46.9 °F 32% 30.17 in 10.0 mi Variable 6.9 mph - N/A   Scattered Clouds
3:53 PM 80.1 °F 46.9 °F 31% 30.16 in 10.0 mi East 6.9 mph - N/A   Clear
4:53 PM 80.1 °F 46.0 °F 30% 30.16 in 10.0 mi ENE 10.4 mph - N/A   Clear
5:53 PM 79.0 °F 46.0 °F 31% 30.16 in 10.0 mi East 12.7 mph 17.3 mph N/A   Scattered Clouds
6:53 PM 75.9 °F 46.0 °F 35% 30.16 in 10.0 mi East 10.4 mph - N/A   Clear
7:53 PM 70.0 °F 46.9 °F 44% 30.18 in 10.0 mi ESE 6.9 mph - N/A   Clear
8:53 PM 63.0 °F 48.9 °F 60% 30.19 in 10.0 mi ESE 5.8 mph - N/A   Clear
9:53 PM 62.1 °F 45.0 °F 53% 30.21 in 9.0 mi ESE 6.9 mph - N/A   Clear
10:53 PM 57.0 °F 45.0 °F 64% 30.22 in 9.0 mi SE 5.8 mph - N/A   Clear
11:53 PM 55.0 °F 46.0 °F 72% 30.22 in 9.0 mi ESE 4.6 mph - N/A   Clear